| time (UTC) | temp F | wind direction | speed MPH | gust MPH | rain 1hr in | rain 24hr in | rain mn in | humidity % | barometer mb |
| 20260901003031 | 60 | 325 | 0.0 | 0.0 | 0.00 | 0.00 | 0.00 | 81 | 1018.1 |
| 20260901001538 | 61 | 325 | 0.0 | 0.0 | 0.00 | 0.00 | 0.00 | 81 | 1018.0 |
| 20260901000011 | 61 | 325 | 0.0 | 0.0 | 0.00 | 0.00 | 0.00 | 79 | 1017.9 |
| 20260831234517 | 63 | 325 | 0.0 | 0.0 | 0.00 | 0.00 | 0.00 | 77 | 1018.0 |
| 20260831233023 | 64 | 325 | 0.0 | 2.0 | 0.00 | 0.00 | 0.00 | 77 | 1017.9 |
| 20260831231526 | 64 | 317 | 0.0 | 0.0 | 0.00 | 0.00 | 0.00 | 77 | 1018.0 |
| 20260831230029 | 65 | 317 | 0.0 | 2.0 | 0.00 | 0.00 | 0.00 | 76 | 1018.2 |
| 20260831224531 | 66 | 316 | 1.0 | 2.0 | 0.00 | 0.00 | 0.00 | 74 | 1018.3 |
| 20260831223034 | 69 | 317 | 0.0 | 2.0 | 0.00 | 0.00 | 0.00 | 71 | 1018.0 |
| 20260831221532 | 73 | 326 | 0.0 | 2.0 | 0.00 | 0.00 | 0.00 | 60 | 1018.1 |
| 20260831220030 | 75 | 288 | 1.0 | 4.0 | 0.00 | 0.00 | 0.00 | 54 | 1018.0 |
| 20260831214537 | 76 | 5 | 2.0 | 5.0 | 0.00 | 0.00 | 0.00 | 52 | 1018.0 |
| 20260831213034 | 76 | 286 | 0.0 | 3.0 | 0.00 | 0.00 | 0.00 | 55 | 1018.0 |
| 20260831211532 | 76 | 323 | 0.0 | 2.0 | 0.00 | 0.00 | 0.00 | 54 | 1018.0 |
| 20260831210026 | 76 | 282 | 0.0 | 3.0 | 0.00 | 0.00 | 0.00 | 57 | 1018.1 |
| 20260831204531 | 75 | 271 | 0.0 | 3.0 | 0.00 | 0.00 | 0.00 | 59 | 1018.1 |
| 20260831203029 | 74 | 318 | 1.0 | 4.0 | 0.00 | 0.00 | 0.00 | 57 | 1018.4 |
| 20260831201531 | 75 | 341 | 0.0 | 5.0 | 0.00 | 0.00 | 0.00 | 56 | 1018.4 |
| 20260831200004 | 77 | 225 | 1.0 | 4.0 | 0.00 | 0.00 | 0.00 | 54 | 1018.4 |
| 20260831194508 | 78 | 247 | 1.0 | 9.0 | 0.00 | 0.00 | 0.00 | 53 | 1018.6 |
| 20260831193019 | 79 | 126 | 1.0 | 3.0 | 0.00 | 0.00 | 0.00 | 50 | 1018.6 |
| 20260831191517 | 78 | 319 | 3.0 | 8.0 | 0.00 | 0.00 | 0.00 | 49 | 1018.6 |
| 20260831190038 | 77 | 306 | 3.0 | 9.0 | 0.00 | 0.00 | 0.00 | 50 | 1018.6 |
| 20260831184505 | 77 | 242 | 2.0 | 7.0 | 0.00 | 0.00 | 0.00 | 50 | 1018.6 |
| 20260831183014 | 77 | 22 | 2.0 | 4.0 | 0.00 | 0.00 | 0.00 | 51 | 1018.9 |
| 20260831181515 | 76 | 180 | 1.0 | 5.0 | 0.00 | 0.00 | 0.00 | 45 | 1018.9 |
| 20260831180019 | 76 | 244 | 2.0 | 7.0 | 0.00 | 0.00 | 0.00 | 42 | 1019.3 |
| 20260831174526 | 76 | 323 | 2.0 | 5.0 | 0.00 | 0.00 | 0.00 | 41 | 1019.2 |
| 20260831173004 | 75 | 69 | 1.0 | 6.0 | 0.00 | 0.00 | 0.00 | 41 | 1019.7 |
| 20260831171513 | 75 | 65 | 1.0 | 5.0 | 0.00 | 0.00 | 0.00 | 41 | 1019.9 |
| 20260831170019 | 75 | 235 | 1.0 | 6.0 | 0.00 | 0.00 | 0.00 | 51 | 1019.9 |
| 20260831164526 | 74 | 219 | 0.0 | 5.0 | 0.00 | 0.00 | 0.00 | 50 | 1020.1 |
| 20260831163008 | 74 | 213 | 1.0 | 5.0 | 0.00 | 0.00 | 0.00 | 55 | 1020.2 |
| 20260831161511 | 73 | 5 | 1.0 | 5.0 | 0.00 | 0.00 | 0.00 | 57 | 1020.3 |
| 20260831160015 | 72 | 352 | 2.0 | 5.0 | 0.00 | 0.00 | 0.00 | 57 | 1020.4 |
| 20260831154548 | 72 | 250 | 1.0 | 6.0 | 0.00 | 0.00 | 0.00 | 59 | 1020.5 |
| 20260831153027 | 73 | 270 | 1.0 | 3.0 | 0.00 | 0.00 | 0.00 | 57 | 1020.4 |
| 20260831151506 | 72 | 155 | 1.0 | 3.0 | 0.00 | 0.00 | 0.00 | 59 | 1020.4 |
| 20260831150011 | 71 | 67 | 1.0 | 4.0 | 0.00 | 0.00 | 0.00 | 57 | 1020.5 |
| 20260831144518 | 71 | 182 | 0.0 | 7.0 | 0.00 | 0.00 | 0.00 | 61 | 1020.6 |
| 20260831143029 | 70 | 318 | 0.0 | 3.0 | 0.00 | 0.00 | 0.00 | 67 | 1020.7 |
| 20260831141530 | 71 | 209 | 0.0 | 3.0 | 0.00 | 0.00 | 0.00 | 65 | 1020.9 |
| 20260831140009 | 70 | 94 | 0.0 | 4.0 | 0.00 | 0.00 | 0.00 | 65 | 1020.7 |
| 20260831134519 | 70 | 37 | 0.0 | 2.0 | 0.00 | 0.00 | 0.00 | 70 | 1020.6 |
| 20260831133024 | 69 | 12 | 1.0 | 3.0 | 0.00 | 0.00 | 0.00 | 71 | 1020.4 |
| 20260831131529 | 67 | 53 | 0.0 | 2.0 | 0.00 | 0.00 | 0.00 | 76 | 1020.6 |
| 20260831130032 | 64 | 84 | 0.0 | 2.0 | 0.00 | 0.00 | 0.00 | 78 | 1020.7 |
| 20260831124515 | 61 | 82 | 0.0 | 2.0 | 0.00 | 0.00 | 0.00 | 85 | 1020.8 |
| 20260831123020 | 59 | 166 | 1.0 | 2.0 | 0.00 | 0.00 | 0.00 | 91 | 1020.7 |
| 20260831121527 | 57 | 142 | 0.0 | 2.0 | 0.00 | 0.00 | 0.00 | 97 | 1020.6 |
| 20260831120038 | 55 | 54 | 0.0 | 0.0 | 0.00 | 0.00 | 0.00 | 1020.7 | |
| 20260831114533 | 53 | 54 | 0.0 | 2.0 | 0.00 | 0.00 | 0.00 | 97 | 1020.6 |
| 20260831113018 | 52 | 48 | 0.0 | 2.0 | 0.00 | 0.00 | 0.00 | 97 | 1020.5 |
| 20260831111526 | 51 | 46 | 0.0 | 2.0 | 0.00 | 0.00 | 0.00 | 97 | 1020.2 |
| 20260831110003 | 51 | 352 | 0.0 | 2.0 | 0.00 | 0.00 | 0.00 | 96 | 1020.2 |
| 20260831104504 | 51 | 352 | 0.0 | 0.0 | 0.00 | 0.00 | 0.00 | 95 | 1020.3 |
| 20260831103007 | 52 | 352 | 0.0 | 0.0 | 0.00 | 0.00 | 0.00 | 96 | 1020.2 |
| 20260831101508 | 52 | 325 | 0.0 | 0.0 | 0.00 | 0.00 | 0.00 | 97 | 1020.0 |
| 20260831100006 | 52 | 325 | 0.0 | 0.0 | 0.00 | 0.00 | 0.00 | 97 | 1020.2 |
| 20260831094507 | 52 | 325 | 0.0 | 0.0 | 0.00 | 0.00 | 0.00 | 97 | 1020.0 |
| 20260831093011 | 51 | 311 | 0.0 | 0.0 | 0.00 | 0.00 | 0.00 | 96 | 1019.8 |
| 20260831091513 | 51 | 9 | 0.0 | 0.0 | 0.00 | 0.00 | 0.00 | 96 | 1019.7 |
| 20260831090005 | 51 | 9 | 0.0 | 0.0 | 0.00 | 0.00 | 0.00 | 95 | 1019.7 |
| 20260831084520 | 51 | 9 | 0.0 | 0.0 | 0.00 | 0.00 | 0.00 | 95 | 1019.5 |
| 20260831083006 | 52 | 9 | 0.0 | 0.0 | 0.00 | 0.00 | 0.00 | 95 | 1019.5 |
| 20260831081507 | 52 | 9 | 0.0 | 0.0 | 0.00 | 0.00 | 0.00 | 95 | 1019.5 |
| 20260831080020 | 53 | 9 | 0.0 | 0.0 | 0.00 | 0.00 | 0.00 | 95 | 1019.4 |
| 20260831074521 | 53 | 9 | 0.0 | 0.0 | 0.00 | 0.00 | 0.00 | 95 | 1019.4 |
| 20260831073012 | 53 | 9 | 0.0 | 0.0 | 0.00 | 0.00 | 0.00 | 94 | 1019.2 |
| 20260831071506 | 54 | 9 | 0.0 | 0.0 | 0.00 | 0.00 | 0.00 | 95 | 1018.9 |
| 20260831070009 | 54 | 9 | 0.0 | 0.0 | 0.00 | 0.00 | 0.00 | 94 | 1018.9 |
| 20260831064509 | 55 | 9 | 0.0 | 0.0 | 0.00 | 0.00 | 0.00 | 94 | 1019.0 |
| 20260831063004 | 55 | 9 | 0.0 | 0.0 | 0.00 | 0.00 | 0.00 | 94 | 1018.9 |
| 20260831061508 | 56 | 9 | 0.0 | 0.0 | 0.00 | 0.00 | 0.00 | 94 | 1018.9 |
| 20260831060009 | 57 | 9 | 0.0 | 0.0 | 0.00 | 0.00 | 0.00 | 93 | 1019.1 |
| 20260831054515 | 57 | 9 | 0.0 | 0.0 | 0.00 | 0.00 | 0.00 | 93 | 1019.0 |
| 20260831053013 | 58 | 9 | 0.0 | 0.0 | 0.00 | 0.00 | 0.00 | 93 | 1018.9 |
| 20260831051519 | 58 | 9 | 0.0 | 0.0 | 0.00 | 0.00 | 0.00 | 91 | 1018.9 |
| 20260831050012 | 60 | 9 | 0.0 | 0.0 | 0.00 | 0.00 | 0.00 | 91 | 1018.7 |
| 20260831044516 | 60 | 9 | 0.0 | 0.0 | 0.00 | 0.00 | 0.00 | 93 | 1018.5 |
| 20260831043012 | 60 | 9 | 0.0 | 2.0 | 0.00 | 0.00 | 0.00 | 93 | 1018.5 |
| 20260831041513 | 60 | 352 | 0.0 | 2.0 | 0.00 | 0.00 | 0.00 | 92 | 1018.5 |
| 20260831040020 | 61 | 345 | 0.0 | 2.0 | 0.00 | 0.00 | 0.00 | 90 | 1018.0 |
| 20260831034515 | 61 | 315 | 1.0 | 2.0 | 0.00 | 0.00 | 0.00 | 90 | 1018.0 |
| 20260831033015 | 62 | 302 | 1.0 | 2.0 | 0.00 | 0.00 | 0.00 | 89 | 1018.1 |
| 20260831031516 | 63 | 319 | 0.0 | 2.0 | 0.00 | 0.00 | 0.00 | 87 | 1018.1 |
| 20260831030014 | 64 | 28 | 1.0 | 2.0 | 0.00 | 0.00 | 0.00 | 85 | 1018.2 |
| 20260831024511 | 65 | 286 | 0.0 | 2.0 | 0.00 | 0.00 | 0.00 | 83 | 1018.1 |
| 20260831023015 | 65 | 292 | 1.0 | 2.0 | 0.00 | 0.00 | 0.00 | 83 | 1018.0 |
| 20260831021519 | 65 | 74 | 0.0 | 2.0 | 0.00 | 0.00 | 0.00 | 83 | 1017.8 |
| 20260831020006 | 65 | 298 | 0.0 | 2.0 | 0.00 | 0.00 | 0.00 | 84 | 1017.8 |
| 20260831014511 | 66 | 232 | 0.0 | 3.0 | 0.00 | 0.00 | 0.00 | 84 | 1017.7 |
| 20260831013017 | 66 | 78 | 1.0 | 5.0 | 0.00 | 0.00 | 0.00 | 84 | 1017.3 |
| 20260831011520 | 65 | 322 | 1.0 | 3.0 | 0.00 | 0.00 | 0.00 | 86 | 1017.3 |
| 20260831010020 | 67 | 52 | 0.0 | 2.0 | 0.00 | 0.00 | 0.00 | 84 | 1017.4 |
| 20260831004511 | 67 | 315 | 1.0 | 5.0 | 0.00 | 0.00 | 0.00 | 81 | 1017.2 |